Regional Weather Roundup
Issued by NWS

Home | Current Version | Previous Version | Graphics & Text | Print | Product List | Glossary On
Versions: 1 2 3 4 5 6 7 8 9 10 11 12 13 14 15 16 17 18 19 20 21 22 23 24 25 26 27 28 29 30 31 32 33 34 35 36 37 38 39 40 41 42 43 44 45 46 47 48 49 50
378
ASUS45 KTFX 180110
RWRMT
MONTANA REGIONAL WEATHER ROUNDUP
NATIONAL WEATHER SERVICE GREAT FALLS MT
600 PM MST SAT FEB 17 2018

NOTE: "FAIR" INDICATES FEW OR NO CLOUDS BELOW 12000 FEET WITH NO
SIGNIFICANT WEATHER AND/OR OBSTRUCTIONS TO VISIBILITY.

MTZ001>007-043-180200-
WEST OF THE DIVIDE

CITY           SKY/WX    TMP DP  RH WIND       PRES   REMARKS
KALISPELL      LGT SNOW  26  22  84 NE14      29.39F WCI  14
MISSOULA       LGT SNOW  33  31  92 E9        29.44F FOG     WCI  25
BUTTE          LGT SNOW  32  28  85 NE5       29.46F VSB 3/4
MULLAN PASS    SNOW      28  26  92 SW22G40   29.29  VSB 1/4 WCI  14
ANACONDA         N/A     34  28  80 MISG      29.43F
DEER LODGE       N/A     34  32  93 MISG      29.42F
EUREKA           N/A     21  18  86 MISG      29.41F VSB 3/4
HAMILTON         N/A     36  32  87 MISG      29.45F
PLAINS           N/A     30  22  72 CALM      29.44F
RONAN            N/A     37  30  75 S24       29.39F WCI  26
$$

MTZ008-052>055-180200-
SOUTHWEST MONTANA

CITY           SKY/WX    TMP DP  RH WIND       PRES   REMARKS
BOZEMAN        CLOUDY    38  23  55 VRB5      29.47F
DILLON         CLOUDY    36  20  52 SW21      29.46F WCI  25
ENNIS          CLOUDY    37  23  56 S33G44    29.56F WCI  24
W YELLOWSTONE  LGT SNOW  27  23  86 SW18G35   29.61F VSB 3/4 WCI  13
THREE FORKS      N/A     40  27  60 S20       29.50F
$$

MTZ009-010-012-014-046-048-049-054-180200-
EAST SLOPES AND CENTRAL MONTANA

CITY           SKY/WX    TMP DP  RH WIND       PRES   REMARKS
CUT BANK       SNOW      10   7  87 NE8       29.60R VSB 1/4 WCI  -2
GREAT FALLS    SNOW      18  15  88 NE15      29.43F VSB 1/2 WCI   4
MALMSTROM AFB  LGT SNOW  18  17  97 NE9       29.45F VSB 1   WCI   7
HELENA         LGT SNOW  26  25  96 W3        29.43F FOG
AUGUSTA        SNOW      14  14  99 N26       29.46F VSB 1/2 WCI  -6
BOWMANS CRNR   LGT SNOW  15  13  93 N18       29.42F WCI  -2
FAIRFIELD      LGT SNOW  15  12  85 N13       29.49F VSB 7/8 WCI   1
POWER          HVY SNOW  15  13  90 NE20G25   29.46F VSB 1/4 WCI  -2
RAYNESFORD     LGT SNOW  18  15  86 SE28G33   29.44F FOG     WCI   0
ULM            LGT SNOW  19  19  97 W7        29.44F WCI  10
WHITE SULPHUR  FOG       30  27  86 SE17G26   29.42F VSB 3/4 WCI  18
$$

MTZ011-013-016-021-045-047-050-051-180200-
NORTH CENTRAL MONTANA

CITY           SKY/WX    TMP DP  RH WIND       PRES   REMARKS
HAVRE          SNOW      11   8  88 E32G38    29.68F VSB 1/2 WCI -12
LEWISTOWN      LGT SNOW  17  14  88 E22       29.49F FOG     WCI   0
N BAR RANCH    LGT SNOW  16  12  86 SE9       29.57F WCI   4
CHINOOK          N/A     10   7  85 E12       29.75F VSB 3/4 WCI  -4
GEYSER         LGT SNOW  16  15  95 N6        29.47F VSB 5/8 WCI   7
STANFORD       LGT SNOW  18  15  90 NW13      29.45F WCI   4
WINIFRED       LGT SNOW  15  14  93 E32       29.52F VSB 5/8 WCI  -6
$$

MTZ017>020-022>027-061-062-180200-
NORTHEAST MONTANA

CITY           SKY/WX    TMP DP  RH WIND       PRES   REMARKS
GLASGOW        CLOUDY    13   7  77 E8        29.81F WCI   2
GLENDIVE       CLOUDY    16  11  80 E3        29.82F
JORDAN           N/A     16  12  84 E10       29.74F WCI   4
MALTA          CLOUDY    10   5  79 E10       29.78F HAZE    WCI  -3
SIDNEY         FAIR      15   8  73 CALM      29.88F
WOLF POINT     CLOUDY    16   7  67 CALM      29.86F
PLENTYWOOD       N/A     10   1  67 CALM      29.85S
SCOBEY           N/A     10  -2  58 CALM      29.82F
$$

MTZ028>42-056>058-180200-
SOUTHCENTRAL AND SOUTHEAST MONTANA

CITY           SKY/WX    TMP DP  RH WIND       PRES   REMARKS
BAKER          CLOUDY    14  10  84 E10       29.78F WCI   1
BILLINGS       CLOUDY    20  18  92 NE9       29.58F WCI   9
LIVINGSTON     LGT RAIN  39  28  64 SW37G51   29.43F WCI  26
MILES CITY     FAIR      19  12  74 E8        29.75F WCI   9
BIG TIMBER     FOG       25  25 100 SE8       29.52F VSB 1/2 WCI  16
EKALAKA          N/A     15   6  67 SE18      29.71F WCI  -2
FORSYTH          N/A     18  14  86 E16       29.70F WCI   3
HARLOWTON      LGT SNOW  17  15  92 E10       29.54F WCI   5
LAUREL           N/A     21  19  93 NE12      29.58F WCI   9
$$

REGIONAL REPORTS...DAKOTAS

CITY           SKY/WX    TMP DP  RH WIND       PRES   REMARKS
WILLISTON      FAIR      13   5  70 CALM      29.90F
MINOT          FAIR      14   4  64 W12       29.91S WCI   0
DICKINSON      MOCLDY    13   7  77 S6        29.84F WCI   4
BEACH          CLOUDY    14  10  85 E3        29.85F
CROSBY         FAIR       7   1  78 W8        29.88F WCI  -6
TIOGA          FAIR       9   3  78 W7        29.87F WCI  -3
WATFORD CITY   FAIR      12   5  73 CALM      29.88F
BISMARCK       FAIR      18   6  59 SW7       29.96S WCI   9
GRAND FORKS    CLOUDY    18  11  74 N7        29.97R WCI   9
FARGO          FAIR      17   8  67 SW6       30.00R WCI   9
BUFFALO SD       N/A     16  10  77 E7        29.74F WCI   6
RAPID CITY     MOCLDY    24  18  77 CALM      29.84F
$$

REGIONAL REPORTS...WYOMING/IDAHO/WASHINGTON

CITY           SKY/WX    TMP DP  RH WIND       PRES   REMARKS
GILLETTE       FAIR      33  22  63 S12       29.62F WCI  24
SHERIDAN       FAIR      27  22  81 NW5       29.60F
BUFFALO WY     FAIR      31  22  69 NW6       29.58F WCI  25
CODY           FAIR      38  21  50 W14G21    29.55F WCI  30
YELLOWSTONE LA   N/A     22  19  89 W8        29.66F WCI  12
IDAHO FALLS    CLOUDY    42  21  43 S20       29.76F
SALMON         LGT RAIN  45  28  51 SW24G33   29.50F
BOISE          CLOUDY    48  29  47 SE12      29.72F
SPOKANE        MOCLDY    41  32  70 W35G48    29.39R
$$

REGIONAL REPORTS...ALBERTA

CITY           SKY/WX    TMP DP  RH WIND       PRES   REMARKS
CALGARY        LGT SNOW   7   3  85 NE9       29.75S WCI  -7
CARDSTON         N/A      5   3  92 NE9         N/A  WCI  -9
EDMONTON       CLEAR      7  -6  56 N10       29.85R WCI  -8
FORT MCMURRAY  LGT SNOW   3  -4  72 N6        29.93S WCI  -8
HIGH LEVEL     CLOUDY    12   3  67 N8        29.98S WCI   1
LETHBRIDGE     LGT SNOW   9   3  78 NE15G22   29.74R VSB 3/4 WCI  -8
LLOYDMINSTER   CLOUDY     7  -2  66 NW7       29.81S WCI  -5
MEDICINE HAT   CLOUDY    12   1  62 NE9       29.79F WCI   0
MILK RIVER       N/A      9   7  92 E21         N/A  WCI -11
PEACE RIVER    PTCLDY     7  -6  56 N6        29.97S WCI  -3
PINCHER CREEK  SNOW       7   3  85 NE13      29.68R VSB 1/2 WCI  -9
WATERTON GATE    N/A      5   1  85 NE9         N/A  WCI  -9
$$

REGIONAL REPORTS...SASKATCHEWAN

CITY           SKY/WX    TMP DP  RH WIND       PRES   REMARKS
CORONACH         N/A      9   0  66 NW2         N/A
CYPRESS HILLS    N/A      5  -2  72 NE6         N/A  WCI  -6
ESTEVAN        MOCLDY     3  -2  78 W6        29.88F WCI  -8
MOOSE JAW        N/A      1  -4  78 W8          N/A  WCI -12
PRINCE ALBERT  PTCLDY     9   0  66 NW5       29.85S
REGINA         MOCLDY     0  -6  78 W5        29.85R
ROCKGLEN         N/A      7   0  72 NW2         N/A
SASKATOON      CLOUDY     7  -2  66 W7        29.86S WCI  -5
SWIFT CURRENT  MOCLDY     7   0  72 NW3       29.76F
VAL MARIE        N/A      9   1  72 E2          N/A
$$




USA.gov is the U.S. government's official web portal to all federal, state and local government web resources and services.